TimeCDT,TemperatureF,Dew PointF,Humidity,Sea Level PressureIn,VisibilityMPH,Wind Direction,Wind SpeedMPH,Gust SpeedMPH,PrecipitationIn,Events,Conditions,WindDirDegrees,DateUTC
12:13 AM,57.2,53.6,88,29.80,10.0,Calm,Calm,-,N/A,,Clear,0,2013-06-25 05:13:00
12:33 AM,55.4,51.8,88,29.80,10.0,Calm,Calm,-,N/A,,Clear,0,2013-06-25 05:33:00
12:53 AM,55.4,51.8,88,29.80,10.0,Calm,Calm,-,N/A,,Clear,0,2013-06-25 05:53:00
1:13 AM,55.4,51.8,88,29.81,10.0,Calm,Calm,-,N/A,,Clear,0,2013-06-25 06:13:00
1:33 AM,55.4,51.8,88,29.81,10.0,Calm,Calm,-,N/A,,Clear,0,2013-06-25 06:33:00
1:53 AM,55.4,51.8,88,29.80,10.0,Calm,Calm,-,N/A,,Clear,0,2013-06-25 06:53:00
2:13 AM,55.4,51.8,88,29.80,10.0,Calm,Calm,-,N/A,,Clear,0,2013-06-25 07:13:00
2:33 AM,55.4,51.8,88,29.80,10.0,Calm,Calm,-,N/A,,Clear,0,2013-06-25 07:33:00
2:53 AM,53.6,51.8,94,29.81,10.0,Calm,Calm,-,N/A,,Clear,0,2013-06-25 07:53:00
3:13 AM,53.6,51.8,94,29.81,10.0,Calm,Calm,-,N/A,,Clear,0,2013-06-25 08:13:00
3:33 AM,53.6,50.0,88,29.81,10.0,Calm,Calm,-,N/A,,Clear,0,2013-06-25 08:33:00
3:53 AM,51.8,48.2,88,29.81,10.0,Calm,Calm,-,N/A,,Clear,0,2013-06-25 08:53:00
4:13 AM,53.6,50.0,88,29.81,10.0,Calm,Calm,-,N/A,,Clear,0,2013-06-25 09:13:00
4:33 AM,53.6,50.0,88,29.81,10.0,Calm,Calm,-,N/A,,Clear,0,2013-06-25 09:33:00
4:53 AM,53.6,50.0,88,29.82,10.0,Calm,Calm,-,N/A,,Clear,0,2013-06-25 09:53:00
5:14 AM,51.8,48.2,88,29.82,10.0,Calm,Calm,-,N/A,,Clear,0,2013-06-25 10:14:00
5:33 AM,51.8,48.2,88,29.82,10.0,Calm,Calm,-,N/A,,Clear,0,2013-06-25 10:33:00
5:53 AM,51.8,48.2,88,29.82,10.0,Calm,Calm,-,N/A,,Clear,0,2013-06-25 10:53:00
6:13 AM,53.6,48.2,82,29.81,10.0,Calm,Calm,-,N/A,,Clear,0,2013-06-25 11:13:00
6:33 AM,55.4,51.8,88,29.81,10.0,Calm,Calm,-,N/A,,Clear,0,2013-06-25 11:33:00
6:53 AM,59.0,55.4,88,29.81,10.0,Calm,Calm,-,N/A,,Clear,0,2013-06-25 11:53:00
7:13 AM,62.6,55.4,77,29.81,10.0,Calm,Calm,-,N/A,,Clear,0,2013-06-25 12:13:00
7:33 AM,66.2,60.8,83,29.80,10.0,Calm,Calm,-,N/A,,Clear,0,2013-06-25 12:33:00
7:53 AM,69.8,62.6,78,29.81,10.0,Calm,Calm,-,N/A,,Clear,0,2013-06-25 12:53:00
8:13 AM,71.6,62.6,73,29.81,10.0,Calm,Calm,-,N/A,,Clear,0,2013-06-25 13:13:00
8:33 AM,73.4,62.6,69,29.81,10.0,Calm,Calm,-,N/A,,Clear,0,2013-06-25 13:33:00
8:53 AM,75.2,62.6,65,29.81,10.0,Calm,Calm,-,N/A,,Clear,0,2013-06-25 13:53:00
9:13 AM,75.2,62.6,65,29.81,10.0,Calm,Calm,-,N/A,,Clear,0,2013-06-25 14:13:00
9:33 AM,75.2,60.8,61,29.82,10.0,Calm,Calm,-,N/A,,Clear,0,2013-06-25 14:33:00
9:54 AM,77.0,60.8,57,29.81,10.0,Calm,Calm,-,N/A,,Clear,0,2013-06-25 14:54:00
10:13 AM,78.8,60.8,54,29.81,10.0,Calm,Calm,-,N/A,,Clear,0,2013-06-25 15:13:00
10:34 AM,78.8,60.8,54,29.81,10.0,Calm,Calm,-,N/A,,Clear,0,2013-06-25 15:34:00
10:53 AM,78.8,57.2,47,29.81,10.0,Calm,Calm,-,N/A,,Clear,0,2013-06-25 15:53:00
11:13 AM,80.6,48.2,32,29.81,10.0,Calm,Calm,-,N/A,,Clear,0,2013-06-25 16:13:00
11:33 AM,80.6,53.6,39,29.81,10.0,SSE,6.9,-,N/A,,Clear,160,2013-06-25 16:33:00
11:53 AM,80.6,51.8,37,29.81,10.0,SSE,6.9,-,N/A,,Clear,150,2013-06-25 16:53:00
12:13 PM,78.8,51.8,39,29.81,10.0,South,3.5,-,N/A,,Clear,180,2013-06-25 17:13:00
12:33 PM,80.6,53.6,39,29.81,10.0,SSE,6.9,-,N/A,,Clear,160,2013-06-25 17:33:00
12:53 PM,80.6,51.8,37,29.81,10.0,South,6.9,-,N/A,,Clear,180,2013-06-25 17:53:00
1:13 PM,80.6,48.2,32,29.81,10.0,SSW,5.8,-,N/A,,Clear,200,2013-06-25 18:13:00
1:34 PM,80.6,50.0,34,29.81,10.0,Calm,Calm,-,N/A,,Clear,0,2013-06-25 18:34:00
1:53 PM,80.6,51.8,37,29.80,10.0,Calm,Calm,-,N/A,,Clear,0,2013-06-25 18:53:00
2:13 PM,80.6,57.2,45,29.80,10.0,South,5.8,-,N/A,,Clear,180,2013-06-25 19:13:00
2:33 PM,80.6,57.2,45,29.80,10.0,SSE,8.1,-,N/A,,Clear,160,2013-06-25 19:33:00
2:53 PM,80.6,55.4,42,29.80,10.0,SSW,8.1,-,N/A,,Clear,200,2013-06-25 19:53:00
3:13 PM,80.6,55.4,42,29.80,10.0,South,3.5,-,N/A,,Clear,190,2013-06-25 20:13:00
3:33 PM,80.6,57.2,45,29.80,10.0,SSE,6.9,-,N/A,,Clear,160,2013-06-25 20:33:00
3:53 PM,80.6,57.2,45,29.79,10.0,Calm,Calm,-,N/A,,Clear,0,2013-06-25 20:53:00
4:13 PM,80.6,55.4,42,29.78,10.0,Calm,Calm,-,N/A,,Clear,0,2013-06-25 21:13:00
4:33 PM,80.6,55.4,42,29.78,10.0,SSE,4.6,-,N/A,,Clear,150,2013-06-25 21:33:00
4:53 PM,80.6,55.4,42,29.78,10.0,Calm,Calm,-,N/A,,Clear,0,2013-06-25 21:53:00
5:13 PM,80.6,55.4,42,29.79,10.0,Calm,Calm,-,N/A,,Clear,0,2013-06-25 22:13:00
5:33 PM,78.8,55.4,44,29.78,10.0,Calm,Calm,-,N/A,,Clear,0,2013-06-25 22:33:00
5:53 PM,78.8,55.4,44,29.77,10.0,Calm,Calm,-,N/A,,Clear,0,2013-06-25 22:53:00
6:13 PM,78.8,55.4,44,29.77,10.0,Calm,Calm,-,N/A,,Clear,0,2013-06-25 23:13:00
6:33 PM,78.8,55.4,44,29.77,10.0,Calm,Calm,-,N/A,,Clear,0,2013-06-25 23:33:00
6:53 PM,77.0,53.6,44,29.76,10.0,Calm,Calm,-,N/A,,Clear,0,2013-06-25 23:53:00
7:13 PM,77.0,53.6,44,29.76,10.0,Calm,Calm,-,N/A,,Clear,0,2013-06-26 00:13:00
7:33 PM,75.2,55.4,50,29.76,10.0,Calm,Calm,-,N/A,,Clear,0,2013-06-26 00:33:00
7:53 PM,73.4,53.6,50,29.76,10.0,Calm,Calm,-,N/A,,Clear,0,2013-06-26 00:53:00
8:13 PM,71.6,55.4,57,29.76,10.0,Calm,Calm,-,N/A,,Clear,0,2013-06-26 01:13:00
8:33 PM,71.6,55.4,57,29.75,10.0,Calm,Calm,-,N/A,,Clear,0,2013-06-26 01:33:00
8:53 PM,68.0,55.4,64,29.75,10.0,Calm,Calm,-,N/A,,Clear,0,2013-06-26 01:53:00
9:13 PM,66.2,55.4,68,29.76,10.0,Calm,Calm,-,N/A,,Clear,0,2013-06-26 02:13:00
9:33 PM,64.4,55.4,73,29.75,10.0,Calm,Calm,-,N/A,,Clear,0,2013-06-26 02:33:00
9:53 PM,62.6,55.4,77,29.75,10.0,Calm,Calm,-,N/A,,Clear,0,2013-06-26 02:53:00
10:13 PM,64.4,53.6,68,29.75,10.0,Calm,Calm,-,N/A,,Clear,0,2013-06-26 03:13:00
10:33 PM,60.8,55.4,82,29.75,10.0,Calm,Calm,-,N/A,,Clear,0,2013-06-26 03:33:00
10:53 PM,60.8,55.4,82,29.76,10.0,Calm,Calm,-,N/A,,Clear,0,2013-06-26 03:53:00
11:13 PM,60.8,53.6,77,29.76,10.0,Calm,Calm,-,N/A,,Clear,0,2013-06-26 04:13:00
11:33 PM,59.0,55.4,88,29.75,10.0,Calm,Calm,-,N/A,,Clear,0,2013-06-26 04:33:00
11:53 PM,59.0,53.6,82,29.76,10.0,Calm,Calm,-,N/A,,Clear,0,2013-06-26 04:53:00